Home > Weather > Heidelberg > Past weeks

Flag for Germany Weather for the Past 2 Weeks in Heidelberg, Baden-Württemberg, Germany

Now
64 °F

Passing clouds.


Feels Like: 64 °F
Forecast: 47 / 74 °F
Wind: 9 mph from Southeast

Location: Mannheim City

Current Time: May 5, 2016 at 2:46:44 PM

Latest Report: May 5, 2016 at 1:50 PM


Visibility: N/A

Pressure: 30.18 "Hg

Humidity: 40%

Dew Point: 39 °F

Location of HeidelbergLocation

Historic Weather in Heidelberg — Graph

°F

Heidelberg Temperature Yesterday

Maximum temperature yesterday: 61 °F (at 3:20 PM)
Minimum temperature yesterday: 39 °F (at 5:50 AM)
Average temperature yesterday: 55 °F

High & Low Weather Summary for the Past Weeks

 TemperatureHumidityPressure
High72 °F (Apr 21, 4:50 PM)100% (Apr 23, 11:20 AM)30.39 "Hg (Apr 23, 11:20 AM)
Low36 °F (Apr 25, 6:50 AM)23% (Apr 21, 4:50 PM)29.59 "Hg (Apr 26, 5:50 AM)
Average52 °F57%30.04 "Hg
* Reported Apr 20 1:20 PM — May 5 1:20 PM, Heidelberg, Weather by CustomWeather, © 2016

Note: Actual official high and low records may vary slightly from our data, if they occured in-between our weather recording intervals... More about our weather records

Advertising

Heidelberg Weather History for the Previous 24 Hours

Scroll right to see more
 ConditionsComfort  
Time TempWeatherWind HumidityBarometerVisibility
1:20 PM
Thu, May 5
64 °FPassing clouds.9 mph40%30.21 "HgN/A
12:50 PM64 °FPassing clouds.9 mph40%30.21 "HgN/A
12:20 PM63 °FPassing clouds.10 mph39%30.24 "HgN/A
11:50 AM61 °FPassing clouds.10 mph42%30.24 "HgN/A
11:20 AM61 °FPassing clouds.9 mph45%30.24 "HgN/A
10:50 AM59 °FPassing clouds.9 mph48%30.27 "HgN/A
10:20 AM57 °FPassing clouds.8 mph48%30.27 "HgN/A
9:50 AM57 °FPassing clouds.8 mph48%30.27 "HgN/A
9:20 AM55 °FPassing clouds.7 mph47%30.30 "HgN/A
8:50 AM54 °FSunny.7 mph51%30.30 "Hg10 mi
8:20 AM54 °FSunny.6 mph54%30.30 "Hg10 mi
7:50 AM52 °FPassing clouds.5 mph58%30.30 "HgN/A
9:20 PM
Wed, May 4
55 °FSunny.5 mph36%30.30 "Hg10 mi
8:50 PM55 °FSunny.6 mph33%30.30 "Hg10 mi
8:20 PM57 °FSunny.6 mph29%30.30 "Hg10 mi
7:50 PM59 °FSunny.6 mph27%30.30 "Hg10 mi
7:20 PM59 °FSunny.9 mph25%30.30 "Hg10 mi
6:50 PM59 °FPassing clouds.8 mph27%30.30 "HgN/A
6:20 PM61 °FPassing clouds.9 mph25%30.30 "HgN/A
5:50 PM61 °FPassing clouds.6 mph25%30.30 "HgN/A
5:20 PM61 °FPassing clouds.6 mph29%30.30 "HgN/A
4:50 PM59 °FPassing clouds.7 mph27%30.33 "HgN/A
4:20 PM61 °FPassing clouds.8 mph25%30.33 "HgN/A
3:50 PM61 °FPassing clouds.7 mph23%30.33 "HgN/A
3:20 PM61 °FSunny.3 mph25%30.33 "Hg10 mi
2:50 PM59 °FSunny.5 mph25%30.36 "Hg10 mi
2:20 PM59 °FPassing clouds.8 mph31%30.36 "HgN/A
Weather by CustomWeather, © 2016

See weather overviewHow to use our weather pages